Погода в Арде

Россия / Республика Марий Эл     56°24′08″N   46°46′45″E
темп.,
°C
ветер,
м/с
пор.,
м/с
влажн.,
%
обл.,
%
осадки,
мм/ч
давл.,
гПа
погр.,
м
27 октября, ср
ср2700:00+2юз41180100 0.0 1017442
03:00+1юз4108196 0.0 1017412
06:00+1юз41084100 0.0 1016410
09:00+2юз41081100 0.0 1015453
12:00+5юз41069100 0.0 1014653
15:00+5юз51163100 0.0 1012802
18:00+6юз61363100 0.0 1011882
21:00+5зюз61268100 0.0 1009997
28 октября, чт
чт2800:00+4зюз51296100 0.4 1009793
03:00+5зюз51189100 0.6 10091099
06:00+5зюз5108388 0.1 1009858
09:00+6з4982100 0.2 1011787
12:00+7зюз4875100 0.0 1011832
15:00+7зюз3674100 0.1 1010857
18:00+5сз1192100 1.1 101166
21:00+6с3686100 2.1 1013677
29 октября, пт
пт2900:00+3с5985100 0.2 1018674
03:00−2ссв49755 0.2 1022500
06:00−3ссв37755 0.0 1026454
09:00−2св2364100 0.0 1028379
12:00+1ю11467 0.0 1029545
15:00+1ююз24499 0.0 1028562
18:000ююз3961100 0.0 1028337
21:00+1ююз41159100 0.4 1026515
30 октября, сб
сб3000:00+4юз51476100 0.1 1024743
03:00+5зюз5148394 0.1 1023593
06:00+4зюз5159353 0.0 1023518
09:00+6зюз5149178 0.0 1023564
12:00+7з61286100 0.0 1024632
15:00+8з41187100 0.0 1024687
18:00+7зюз3129476 0.0 1025470
21:00+6зюз3109673 0.0 1026346
31 октября, вс
вс3100:00+6зюз3995100 0.0 1027294
03:00+6зюз3891100 0.0 1027268
06:00+4зюз39935 0.0 1027212
09:00+5зюз3108151 0.0 1027301
12:00+9зюз4106678 0.0 1026516
15:00+9зюз4126759 0.0 1025597
18:00+7зюз413795 0.0 1026463
21:00+6зюз4128533 0.0 1026388